Weather History for Boone, NC

Change the Weather History Date:

Monday, May 13, 2013

  Actual Average (KGEV) Record (KGEV)
Temperature  
Mean Temperature 45 °F -  
Max Temperature 53 °F 71 °F 83 °F (1982)
Min Temperature 37 °F 47 °F 27 °F (1989)
Degree Days  
Heating Degree Days 20    
Moisture  
Dew Point 24 °F    
Average Humidity 45    
Maximum Humidity 69    
Minimum Humidity 28    
Precipitation  
Precipitation 0.00 in - - ()
Sea Level Pressure  
Sea Level Pressure 30.13 in    
Wind  
Wind Speed 9 mph (NW)    
Max Wind Speed 23 mph    
Max Gust Speed 31 mph    
Visibility 10 miles    
Events      
Averages and records for this station are not official NWS values.
T = Trace of Precipitation, MM = Missing Value Source: NWS Daily Summary

Daily Weather History Graph

Daily Weather History Graph

Search for Another Location

Airport:

Trip Planner

Search our weather history database for the weather conditions in past years. The results will help you decide how hot, cold, wet, or windy it might be!

Date:

Astronomy

May. 13, 2013 Rise Set
Actual Time 6:21 AM EDT 8:24 PM EDT
Civil Twilight 5:53 AM EDT 8:53 PM EDT
Nautical Twilight 5:18 AM EDT 9:27 PM EDT
Astronomical Twilight 4:41 AM EDT 10:05 PM EDT
Moon 9:07 AM EDT (5/13) 11:32 PM EDT (5/13)
Length of Visible Light 14h 59m
Length of Day
14h 02m
Waxing Crescent, 12% of the Moon is Illuminated
May 13
Waxing Crescent
May 18
First Quarter
May 25
Full
May 31
Last Quarter
Jun 8
New

Hourly Weather History & Observations

Time (EDT) Temp. Windchill Dew Point Humidity Pressure Visibility Wind Dir Wind Speed Gust Speed Precip Events Conditions
12:15 AM 44.4 °F 39.5 °F 27.0 °F 50% 30.08 in 10.0 mi NW 9.2 mph - N/A   Clear
12:35 AM 43.3 °F 38.1 °F 27.1 °F 53% 30.09 in 10.0 mi NW 9.2 mph - N/A   Clear
12:55 AM 43.2 °F 38.4 °F 26.6 °F 52% 30.09 in 10.0 mi NW 8.1 mph - N/A   Clear
1:15 AM 42.4 °F 38.8 °F 26.8 °F 54% 30.09 in 10.0 mi NW 5.8 mph - N/A   Clear
1:35 AM 42.1 °F 37.1 °F 26.6 °F 54% 30.09 in 10.0 mi NW 8.1 mph - N/A   Clear
1:55 AM 41.9 °F 36.3 °F 26.2 °F 54% 30.08 in 10.0 mi NW 9.2 mph - N/A   Clear
2:15 AM 41.5 °F 37.8 °F 26.2 °F 55% 30.08 in 10.0 mi NW 5.8 mph - N/A   Clear
2:35 AM 41.4 °F 38.4 °F 26.2 °F 55% 30.07 in 10.0 mi West 4.6 mph - N/A   Clear
2:55 AM 41.2 °F 37.3 °F 26.2 °F 55% 30.07 in 10.0 mi NNW 5.8 mph - N/A   Clear
3:15 AM 40.8 °F 36.9 °F 26.1 °F 56% 30.07 in 10.0 mi NW 5.8 mph - N/A   Clear
3:35 AM 40.1 °F 34.7 °F 26.4 °F 58% 30.07 in 10.0 mi NW 8.1 mph - N/A   Clear
3:55 AM 39.7 °F 33.2 °F 26.6 °F 59% 30.07 in 10.0 mi WNW 10.4 mph - N/A   Clear
4:15 AM 39.2 °F 32.5 °F 27.1 °F 62% 30.07 in 10.0 mi WNW 10.4 mph - N/A   Clear
4:35 AM 39.0 °F 33.4 °F 27.3 °F 63% 30.08 in 10.0 mi NW 8.1 mph - N/A   Clear
4:55 AM 38.8 °F 35.4 °F 27.5 °F 64% 30.08 in 10.0 mi West 4.6 mph - N/A   Clear
5:15 AM 38.7 °F 35.2 °F 27.5 °F 64% 30.09 in 10.0 mi West 4.6 mph - N/A   Clear
5:35 AM 38.3 °F 34.8 °F 28.0 °F 67% 30.10 in 10.0 mi West 4.6 mph - N/A   Clear
5:55 AM 37.6 °F 34.0 °F 28.2 °F 69% 30.10 in 10.0 mi West 4.6 mph - N/A   Clear
6:15 AM 37.9 °F 33.5 °F 28.4 °F 69% 30.10 in 10.0 mi West 5.8 mph - N/A   Clear
6:35 AM 37.6 °F 35.1 °F 28.4 °F 69% 30.11 in 10.0 mi West 3.5 mph - N/A   Clear
6:55 AM 38.3 °F 33.9 °F 28.4 °F 68% 30.12 in 10.0 mi West 5.8 mph - N/A   Clear
7:15 AM 39.0 °F 34.0 °F 28.0 °F 65% 30.13 in 10.0 mi WNW 6.9 mph - N/A   Clear
7:35 AM 40.1 °F 38.0 °F 27.5 °F 61% 30.12 in 10.0 mi NNW 3.5 mph - N/A   Clear
7:55 AM 40.1 °F 33.2 °F 27.9 °F 62% 30.14 in 10.0 mi WNW 11.5 mph 17.3 mph N/A   Clear
8:15 AM 40.1 °F 34.7 °F 28.0 °F 62% 30.14 in 10.0 mi WNW 8.1 mph - N/A   Clear
8:35 AM 40.5 °F 33.6 °F 28.4 °F 62% 30.15 in 10.0 mi WNW 11.5 mph - N/A   Clear
8:55 AM 41.0 °F 36.4 °F 28.2 °F 60% 30.16 in 10.0 mi WNW 6.9 mph - N/A   Clear
9:35 AM 44.4 °F 37.2 °F 24.1 °F 45% 30.16 in 10.0 mi NNW 16.1 mph 23.0 mph N/A   Clear
9:55 AM 45.1 °F 41.4 °F 23.7 °F 43% 30.16 in 10.0 mi NW 6.9 mph 20.7 mph N/A   Clear
10:15 AM 45.5 °F 39.2 °F 21.6 °F 39% 30.17 in 10.0 mi NW 13.8 mph 23.0 mph N/A   Clear
10:35 AM 45.5 °F 39.9 °F 21.7 °F 39% 30.17 in 10.0 mi NW 11.5 mph 21.9 mph N/A   Clear
10:55 AM 46.6 °F - 21.9 °F 38% 30.17 in 10.0 mi WNW 6.9 mph 20.7 mph N/A   Clear
11:15 AM 47.7 °F - 21.2 °F 35% 30.17 in 10.0 mi West 13.8 mph 20.7 mph N/A   Clear
11:35 AM 48.4 °F - 21.7 °F 35% 30.17 in 10.0 mi West 12.7 mph 21.9 mph N/A   Clear
11:55 AM 48.6 °F - 21.2 °F 34% 30.17 in 10.0 mi NW 11.5 mph 24.2 mph N/A   Clear
12:15 PM 48.9 °F - 21.2 °F 34% 30.17 in 10.0 mi NW 15.0 mph 26.5 mph N/A   Clear
12:35 PM 49.8 °F - 20.7 °F 32% 30.16 in 10.0 mi NW 11.5 mph 27.6 mph N/A   Clear
12:55 PM 50.0 °F - 21.2 °F 32% 30.16 in 10.0 mi NW 8.1 mph 27.6 mph N/A   Clear
1:15 PM 50.9 °F - 20.7 °F 30% 30.15 in 10.0 mi NNW 16.1 mph 28.8 mph N/A   Clear
1:35 PM 50.7 °F - 21.6 °F 32% 30.15 in 10.0 mi WNW 18.4 mph 25.3 mph N/A   Clear
1:55 PM 51.3 °F - 20.7 °F 30% 30.14 in 10.0 mi NNW 18.4 mph 26.5 mph N/A   Clear
2:15 PM 51.6 °F - 20.7 °F 30% 30.14 in 10.0 mi WNW 17.3 mph 25.3 mph N/A   Clear
2:35 PM 52.2 °F - 20.5 °F 29% 30.14 in 10.0 mi WNW 21.9 mph 29.9 mph N/A   Clear
2:55 PM 52.9 °F - 21.4 °F 29% 30.13 in 10.0 mi NW 15.0 mph 23.0 mph N/A   Clear
3:15 PM 52.7 °F - 20.5 °F 28% 30.12 in 10.0 mi WNW 21.9 mph 31.1 mph N/A   Clear
3:35 PM 52.9 °F - 20.7 °F 28% 30.11 in 10.0 mi NW 23.0 mph 28.8 mph N/A   Clear
4:35 PM 52.3 °F - 21.2 °F 30% 30.10 in 10.0 mi WNW 15.0 mph 25.3 mph N/A   Clear
4:55 PM 53.6 °F - 21.4 °F 28% 30.10 in 10.0 mi WNW 16.1 mph 27.6 mph N/A   Clear
5:15 PM 53.2 °F - 21.0 °F 28% 30.10 in 10.0 mi NW 18.4 mph 31.1 mph N/A   Clear
5:35 PM 53.8 °F - 20.8 °F 28% 30.10 in 10.0 mi NW 19.6 mph 27.6 mph N/A   Clear
5:55 PM 53.6 °F - 21.0 °F 28% 30.10 in 10.0 mi WNW 13.8 mph 27.6 mph N/A   Clear
6:15 PM 52.7 °F - 21.2 °F 29% 30.10 in 10.0 mi WNW 21.9 mph 25.3 mph N/A   Clear
6:35 PM 51.8 °F - 21.7 °F 31% 30.10 in 10.0 mi WNW 13.8 mph 21.9 mph N/A   Clear
6:55 PM 52.2 °F - 22.1 °F 31% 30.10 in 10.0 mi NW 15.0 mph 25.3 mph N/A   Clear
7:55 PM 51.1 °F - 21.7 °F 32% 30.10 in 10.0 mi NW 11.5 mph 19.6 mph N/A   Clear
8:15 PM 50.5 °F - 21.9 °F 33% 30.11 in 10.0 mi NW 12.7 mph - N/A   Clear
8:35 PM 50.0 °F - 22.1 °F 33% 30.12 in 10.0 mi NW 12.7 mph 21.9 mph N/A   Clear
8:55 PM 49.5 °F - 22.3 °F 34% 30.13 in 10.0 mi NW 12.7 mph 18.4 mph N/A   Clear
9:15 PM 49.1 °F - 22.1 °F 35% 30.14 in 10.0 mi WNW 9.2 mph - N/A   Clear
9:35 PM 48.9 °F - 22.1 °F 35% 30.15 in 10.0 mi NW 4.6 mph - N/A   Clear
9:55 PM 48.6 °F - 22.5 °F 36% 30.16 in 10.0 mi Calm Calm - N/A   Clear
10:15 PM 48.2 °F - 22.6 °F 37% 30.17 in 10.0 mi North 4.6 mph - N/A   Clear
10:35 PM 44.6 °F 42.2 °F 25.2 °F 46% 30.18 in 10.0 mi North 4.6 mph - N/A   Scattered Clouds
10:55 PM 45.1 °F 43.7 °F 25.2 °F 46% 30.19 in 10.0 mi North 3.5 mph - N/A   Clear
11:15 PM 44.8 °F - 27.0 °F 50% 30.20 in 10.0 mi Calm Calm - N/A   Clear
11:35 PM 41.0 °F - 29.5 °F 64% 30.20 in 10.0 mi Calm Calm - N/A   Clear
11:55 PM 41.4 °F - 29.1 °F 62% 30.20 in 10.0 mi Calm Calm - N/A   Clear